Zurück zum Katalog

MEASAT 3A

AktivKommunikationGEO
NORAD 35362·PAYLOAD·🇲🇾 Malaysia

Gestartet Jun 21, 2009 von Baikonur Cosmodrome

Loading…

TLE

AktuellSource: Space-Track

Epoche: Sep 14, 2026, 10:33 UTC

1 35362U 09032A   26257.44007337 -.00000119  00000-0  00000-0 0  9995
2 35362   0.0417 326.6930 0001889 213.1886 131.9738  1.00271585  8927

Verfolge MEASAT 3A in Echtzeit mit AllMySat

Download on the App Store